Regional Weather Roundup
Issued by NWS Sioux Falls, SD

Home | Current Version | Previous Version | Text Only | Print | Product List | Glossary On
Versions: 1 2 3 4 5 6 7 8 9 10 11 12 13 14 15 16 17 18 19 20 21 22 23 24 25 26 27 28 29 30 31 32 33 34 35 36 37 38 39 40 41 42 43 44 45 46 47 48 49 50
000
ASUS43 KFSD 261010
RWRFSD

WEATHER ROUNDUP FOR SE SOUTH DAKOTA/SW MINNESOTA/NW IOWA
NATIONAL WEATHER SERVICE SIOUX FALLS SD
400 AM CST SUN FEB 26 2017

NOTE: "FAIR" INDICATES FEW OR NO CLOUDS BELOW 12,000 FEET WITH NO
SIGNIFICANT WEATHER AND OR OBSTRUCTIONS TO VISIBILITY.


SDZ038>040-050-052>070-261100-
SOUTHEAST SOUTH DAKOTA

CITY           SKY/WX    TMP DP  RH WIND       PRES   REMARKS
BROOKINGS      CLOUDY    20  18  92 S6        29.70F WCI  12
CHAMBERLAIN    PTCLDY    23  19  81 W9        29.76R WCI  13
HURON          MOCLDY    23  21  92 SW8       29.73S WCI  14
MADISON        CLOUDY    21  21 100 W12       29.71S WCI   9
MITCHELL       CLEAR     26  19  74 SW10      29.75S WCI  16
SIOUX FALLS    CLEAR     20  16  84 SW3       29.74F
WINNER         FAIR      21  12  68 W8        29.76R WCI  11
YANKTON        CLEAR     21  16  79 SW10      29.78S WCI  10
$$

MNZ071-072-080-081-089-090-097-098-261100-
SOUTHWEST MINNESOTA

CITY           SKY/WX    TMP DP  RH WIND       PRES   REMARKS
FAIRMONT       CLEAR     18  14  84 S10       29.76F WCI   6
JACKSON        PTCLDY    19  18  93 SW8       29.75S WCI   9
LUVERNE        CLEAR     19  16  86 S3        29.76S
MARSHALL       NOT AVBL
MONTEVIDEO     MOCLDY    25  21  86 CALM      29.73R
PIPESTONE      CLEAR     18  14  86 SW5       29.72S WCI  11
REDWOOD FALLS  CLEAR     24  18  77 SW9       29.72F WCI  14
TRACY          PTCLDY    24  20  87 SW12      29.72S WCI  13
WINDOM         CLEAR     21  18  86 SW10      29.73S WCI  10
WORTHINGTON    CLEAR     19  16  88 SW13      29.74S WCI   6
$$

IAZ001>003-012>014-020>022-031-032-NEZ013-014-SDZ071-261100-
NORTHWEST IOWA

CITY           SKY/WX    TMP DP  RH WIND       PRES   REMARKS
CHEROKEE       CLEAR     20  18  92 S6        29.80S WCI  12
DENISON        CLEAR     25  21  86 SW7       29.81S WCI  17
ESTHERVILLE    CLEAR     19  15  84 SW12      29.75F WCI   7
LE MARS        PTCLDY    19  16  86 S5        29.80S WCI  13
SHELDON        CLEAR     19  19 100 SW9       29.75F WCI   9
SIOUX CITY     CLEAR     20  16  84 S3        29.82F
SPENCER        CLEAR     18  14  84 SW9       29.77F WCI   7
STORM LAKE     PTCLDY    19  18  93 SW12      29.78S WCI   7
$$

ABBREVIATIONS USED IN REMARKS
   TC - TEMPERATURE IN CELSIUS
  WCI - WIND CHILL INDEX
   HX - HEAT INDEX
  VSB - VISIBILITY





USA.gov is the U.S. government's official web portal to all federal, state and local government web resources and services.